{"data":{"norad_id":64523,"intl_designator":"2025-134Z","name":"KUIPER-00063","alt_names":[],"object_type":"PAYLOAD","status":"ACTIVE","operator":null,"country":"US","launch_date":"2025-06-23","launch_site_code":"AFETR","launch_vehicle":null,"mission":null,"orbit_class":"UNKNOWN","rcs_meters":null,"size_class":null,"mass_kg":null,"dimensions":null,"purposes":[],"wikipedia_slug":null,"has_3d_model":false,"image_url":null,"decayed_at":null,"tle_current":{"epoch":"2026-05-24T17:32:38.071680Z","epoch_age_seconds":95531,"freshness":"FRESH","line1":"1 64523U 25134Z   26144.73099620  .00008292  00000+0  11143-2 0  9990","line2":"2 64523  51.9017 261.8628 0000256  96.7066 263.3926 14.79975236 51263","mean_motion":14.79975236,"eccentricity":2.56e-5,"inclination_deg":51.9017,"raan_deg":261.8628,"arg_perigee_deg":96.7066,"mean_anomaly_deg":263.3926,"bstar":0.0011143,"rev_number":5126,"period_min":97.298925344991,"perigee_km":629.22291075374,"apogee_km":629.5816967661,"semimajor_km":7007.5393037599,"source":"CELESTRAK","updated_at":"2026-05-25T13:38:04.578036Z"}}}